Regional Weather Roundup
Issued by NWS

Home | Current Version | Previous Version | Text Only | Print | Product List | Glossary Off
Versions: 1 2 3 4 5 6 7 8 9 10 11 12 13 14 15 16 17 18 19 20 21 22 23 24 25 26 27 28 29 30 31 32 33 34 35 36 37 38 39 40 41 42 43 44 45 46 47 48 49 50

107
ASUS45 KTFX 232010
RWRMT
MONTANA REGIONAL WEATHER ROUNDUP
NATIONAL WEATHER SERVICE GREAT FALLS MT
200 PM MDT TUE AUG 23 2016

NOTE: "FAIR" INDICATES FEW OR NO CLOUDS BELOW 12000 FEET WITH NO
SIGNIFICANT WEATHER AND/OR OBSTRUCTIONS TO VISIBILITY.

MTZ001>007-043-232100-
WEST OF THE DIVIDE

CITY           SKY/WX    TMP DP  RH WIND       PRES   REMARKS
KALISPELL      CLOUDY    70  39  32 VRB5      30.10S
MISSOULA       MOSUNNY   72  35  25 SW8       30.12F
BUTTE          SUNNY     66  26  22 W7        30.16S
MULLAN PASS    SUNNY     57  35  43 MISG      30.23S
DEER LODGE       N/A     68  30  24 NW13G18   30.15S
EUREKA           N/A     64  39  39 NW3       30.15R
HAMILTON         N/A     68  32  26 CALM      30.14R
LIBBY            N/A     73  37  27 NW7       30.09F
PLAINS           N/A     76  38  25 S1        30.10F
$$

MTZ008-052>055-232100-
SOUTHWEST MONTANA

CITY           SKY/WX    TMP DP  RH WIND       PRES   REMARKS
BOZEMAN        SUNNY     70  25  18 W9        30.11F
DILLON         SUNNY     71  16  12 SE5       30.11F
W YELLOWSTONE  SUNNY     68   5   8 W12G23    30.17S
ENNIS          SUNNY     70  12  11 NW9G21    30.16S
THREE FORKS      N/A     72  72 100 W5        30.08F
TWIN BRIDGES     N/A     70  21  15 SE9       30.10F
$$

MTZ009-010-012-014-046-048-049-054-232100-
EAST SLOPES AND CENTRAL MONTANA

CITY           SKY/WX    TMP DP  RH WIND       PRES   REMARKS
CUT BANK       CLOUDY    62  41  46 NW22G33   30.10R
GREAT FALLS    CLOUDY    69  33  26 NW13G22   30.06R
MALMSTROM AFB  CLOUDY    67  36  30 NW15G21   30.07R
HELENA         CLOUDY    74  31  20 NW15G21   30.09S
CHOTEAU          N/A     66  36  32 N20       30.11R
CONRAD           N/A     66  45  46 NW18      30.11R
$$

MTZ011-013-016-021-045-047-050-051-232100-
NORTH CENTRAL MONTANA

CITY           SKY/WX    TMP DP  RH WIND       PRES   REMARKS
HAVRE          PTSUNNY   65  46  50 W32G39    29.97S
LEWISTOWN      MOSUNNY   71  34  25 NW21G29   30.04S
N BAR RANCH      N/A     70  32  24 W18G36    30.05S
CHINOOK          N/A     64  48  55 W24G36    29.94R
$$

MTZ017>020-022>027-061-062-232100-
NORTHEAST MONTANA

CITY           SKY/WX    TMP DP  RH WIND       PRES   REMARKS
GLASGOW        PTSUNNY   69  42  37 W31G45    29.89R
JORDAN           N/A     77  34  21 W28G36    29.93S
SIDNEY         SUNNY     77  42  28 W21G29    29.86F
WOLF POINT     SUNNY     77  42  28 W28G39    29.88R
POPLAR           N/A     73  43  33 W24G32    29.87R
SCOBEY           N/A     71  40  32 SW24      29.84F
$$

MTZ028>42-056>058-232100-
SOUTHCENTRAL AND SOUTHEAST MONTANA

CITY           SKY/WX    TMP DP  RH WIND       PRES   REMARKS
BAKER          MOSUNNY   75  31  19 NW22G30   29.94F
BILLINGS       MOSUNNY   78  22  12 NW18G28   29.99F
LIVINGSTON     SUNNY     75  19  12 W21G29    30.07S
MILES CITY     SUNNY     77  29  17 W16G26    29.95S
FORSYTH          N/A     73  30  20 W14       29.96S
LAUREL           N/A     78  19  11 W14       29.99F
ROUNDUP          N/A     75  31  20 W12       29.91S
$$

REGIONAL REPORTS...DAKOTAS

CITY           SKY/WX    TMP DP  RH WIND       PRES   REMARKS
WILLISTON      MOSUNNY   79  39  23 W21G29    29.84R
MINOT          SUNNY     80  41  24 W24G37    29.77R
DICKINSON      SUNNY     77  29  17 NW18G28   29.86R
CROSBY           N/A     75  41  29 W16G25    29.83S
BISMARCK       SUNNY     82  40  22 NW18G36   29.78R
GRAND FORKS    PTSUNNY   87  69  54 S15G23    29.65S HX  91
FARGO          SUNNY     88  67  49 S25G35    29.68S HX  91
BUFFALO SD       N/A     77  34  21 NW21G35   29.88R
RAPID CITY     MOSUNNY   82  34  17 NW21G35   29.94R
$$

REGIONAL REPORTS...WYOMING/IDAHO/WASHINGTON

CITY           SKY/WX    TMP DP  RH WIND       PRES   REMARKS
GILLETTE       SUNNY     74  27  17 N10       30.04S
SHERIDAN       SUNNY     75  29  18 NE5       30.03F
BUFFALO WY     SUNNY     73  26  17 VRB5      30.08F
CODY           SUNNY     72  34  25 CALM      30.05F
YELLOWSTONE LA   N/A     63  14  15 SW9G18    30.24R
IDAHO FALLS    MOSUNNY   77  23  13 SW13G24   30.10S
SALMON         SUNNY     70  27  19 NW5       30.11S
BOISE          SUNNY     76  28  17 W10       30.10F
SPOKANE        MOSUNNY   73  39  29 NW5       30.13F
$$

REGIONAL REPORTS...ALBERTA

CITY           SKY/WX    TMP DP  RH WIND       PRES   REMARKS
EDMONTON       LGT RAIN  55  54  94 N13G18    30.06R
CALGARY        PTSUNNY   59  46  63 N28G37    30.09R
LETHBRIDGE     CLOUDY    61  48  63 NW22G33   30.07R
MEDICINE HAT   LGT RAIN  63  52  67 W23G36    29.90R
WATERTON GATE    N/A     57  39  51 SW9         N/A
ONEFOUR          N/A     55  54  94 W28G38      N/A
$$

REGIONAL REPORTS...SASKATCHEWAN

CITY           SKY/WX    TMP DP  RH WIND       PRES   REMARKS
SWIFT CURRENT  LGT RAIN  54  52  94 W15G21    29.78S
REGINA         PTSUNNY   66  46  48 W16G24    29.77R
SASKATOON      LGT RAIN  61  48  63 E9G18     29.70R
CYPRESS HILLS    N/A     52  48  87 W14G23      N/A
VAL MARIE        N/A     68  43  40 W23G33      N/A
ROCKGLEN         N/A     68  43  40 W22G30      N/A
ASSINIBOIA       N/A     59  54  82 NW16G24     N/A
$$




USA.gov is the U.S. government's official web portal to all federal, state and local government web resources and services.